When you browse on this site, cookies collect data to enhance your experience and personalize the content and advertising you see.
Visit our Privacy Policy to learn more. By continuing to use the site, you agree to this use of cookies and data.
  • In Denmark
  • List of Countries
  • For 7 days
  • Water Temperature
  • Satellite Maps
  • Weather Map
  • Weather Widgets
  • user-avatar
    Login

    Hourly Weather Belfast

    Today, 17 February, Sunday

    Time Temperature Precipitation Wind Pressure Humidity
    00:00 +8°C° 0.1 mm 9 mps 752 mmHg 87%
    01:00 +8°C° 0 mm 10 mps 751 mmHg 86%
    02:00 +8°C° 0 mm 10 mps 751 mmHg 86%
    03:00 +8°C° 0 mm 10 mps 750 mmHg 85%
    04:00 +8°C° 0.1 mm 10 mps 750 mmHg 86%
    05:00 +8°C° 0.1 mm 10 mps 750 mmHg 88%
    06:00 +8°C° 0.1 mm 10 mps 749 mmHg 89%
    07:00 +8°C° 0.6 mm 9 mps 749 mmHg 89%
    08:00 +9°C° 0.6 mm 7 mps 749 mmHg 89%
    09:00 +9°C° 0.6 mm 6 mps 750 mmHg 89%
    10:00 +9°C° 0 mm 7 mps 750 mmHg 84%
    11:00 +9°C° 0 mm 7 mps 750 mmHg 79%
    12:00 +9°C° 0 mm 8 mps 751 mmHg 75%
    13:00 +9°C° 0 mm 8 mps 750 mmHg 72%
    14:00 +9°C° 0 mm 8 mps 750 mmHg 69%
    15:00 +9°C° 0 mm 8 mps 750 mmHg 66%
    16:00 +7°C° 0 mm 8 mps 750 mmHg 69%
    17:00 +8°C° 0 mm 7 mps 750 mmHg 72%
    18:00 +6°C° 0 mm 7 mps 750 mmHg 74%
    19:00 +6°C° 0 mm 7 mps 750 mmHg 76%
    20:00 +5°C° 0 mm 7 mps 750 mmHg 78%
    21:00 +5°C° 0 mm 7 mps 750 mmHg 79%
    22:00 +5°C° 0 mm 7 mps 750 mmHg 78%
    23:00 +5°C° 0 mm 8 mps 750 mmHg 78%

    Tomorrow, 18 February, Monday

    Time Temperature Precipitation Wind Pressure Humidity
    00:00 +4°C° 0 mm 8 mps 750 mmHg 77%
    01:00 +5°C° 0 mm 8 mps 750 mmHg 77%
    02:00 +5°C° 0 mm 8 mps 750 mmHg 77%
    03:00 +5°C° 0 mm 8 mps 750 mmHg 78%
    04:00 +5°C° 0 mm 8 mps 750 mmHg 78%
    05:00 +4°C° 0 mm 7 mps 750 mmHg 79%
    06:00 +3°C° 0 mm 7 mps 750 mmHg 79%
    07:00 +4°C° 0 mm 7 mps 750 mmHg 81%
    08:00 +4°C° 0 mm 7 mps 751 mmHg 82%
    09:00 +4°C° 0 mm 7 mps 751 mmHg 84%
    10:00 +5°C° 0 mm 7 mps 751 mmHg 80%
    11:00 +6°C° 0 mm 7 mps 752 mmHg 77%
    12:00 +8°C° 0 mm 7 mps 752 mmHg 74%
    13:00 +8°C° 0 mm 7 mps 752 mmHg 73%
    14:00 +8°C° 0 mm 6 mps 752 mmHg 72%
    15:00 +8°C° 0 mm 6 mps 753 mmHg 72%
    16:00 +7°C° 0.1 mm 5 mps 753 mmHg 77%
    17:00 +6°C° 0.1 mm 5 mps 753 mmHg 82%
    18:00 +5°C° 0.1 mm 4 mps 754 mmHg 87%
    19:00 +5°C° 0 mm 4 mps 754 mmHg 88%
    20:00 +4°C° 0 mm 4 mps 755 mmHg 89%
    21:00 +3°C° 0 mm 5 mps 755 mmHg 89%
    22:00 +2°C° 0 mm 5 mps 755 mmHg 90%
    23:00 +2°C° 0 mm 5 mps 756 mmHg 90%

    Day after tomorrow, 19 February, Tuesday

    Time Temperature Precipitation Wind Pressure Humidity
    00:00 +2°C° 0 mm 5 mps 756 mmHg 90%
    01:00 +1°C° 0 mm 5 mps 756 mmHg 90%
    02:00 +1°C° 0 mm 5 mps 756 mmHg 90%
    03:00 +1°C° 0 mm 5 mps 756 mmHg 90%
    04:00 +1°C° 0 mm 4 mps 756 mmHg 90%
    05:00 +1°C° 0 mm 4 mps 756 mmHg 91%
    06:00 +1°C° 0 mm 4 mps 756 mmHg 92%
    07:00 +1°C° 0 mm 4 mps 756 mmHg 90%
    08:00 +3°C° 0 mm 4 mps 757 mmHg 88%
    09:00 +3°C° 0 mm 4 mps 757 mmHg 86%
    10:00 +3°C° 0.3 mm 5 mps 757 mmHg 87%
    11:00 +4°C° 0.3 mm 6 mps 756 mmHg 87%
    12:00 +5°C° 0.3 mm 7 mps 756 mmHg 88%
    13:00 +5°C° 0.3 mm 7 mps 756 mmHg 88%
    14:00 +5°C° 0.3 mm 7 mps 755 mmHg 89%
    15:00 +5°C° 0.3 mm 8 mps 755 mmHg 90%
    16:00 +6°C° 0.1 mm 8 mps 754 mmHg 90%
    17:00 +6°C° 0.1 mm 8 mps 754 mmHg 91%
    18:00 +6°C° 0.1 mm 8 mps 753 mmHg 91%
    19:00 +6°C° 0.8 mm 8 mps 753 mmHg 92%
    20:00 +6°C° 0.8 mm 7 mps 753 mmHg 93%
    21:00 +6°C° 0.8 mm 7 mps 753 mmHg 93%
    22:00 +8°C° 1.1 mm 7 mps 753 mmHg 93%
    23:00 +8°C° 1.1 mm 7 mps 753 mmHg 93%

    20 February, Wednesday

    Time Temperature Precipitation Wind Pressure Humidity
    00:00 +8°C° 1.1 mm 7 mps 753 mmHg 93%
    01:00 +8°C° 0.5 mm 7 mps 753 mmHg 93%
    02:00 +8°C° 0.5 mm 7 mps 753 mmHg 93%
    03:00 +8°C° 0.5 mm 7 mps 753 mmHg 93%
    04:00 +8°C° 0.1 mm 7 mps 753 mmHg 92%
    05:00 +9°C° 0.1 mm 7 mps 753 mmHg 92%
    06:00 +9°C° 0.1 mm 7 mps 753 mmHg 91%
    07:00 +9°C° 0.1 mm 7 mps 753 mmHg 91%
    08:00 +9°C° 0.1 mm 8 mps 753 mmHg 91%
    09:00 +9°C° 0.1 mm 8 mps 753 mmHg 90%
    10:00 +9°C° 0.7 mm 8 mps 753 mmHg 90%
    11:00 +9°C° 0.7 mm 8 mps 753 mmHg 90%
    12:00 +10°C° 0.7 mm 8 mps 753 mmHg 90%
    13:00 +10°C° 0.1 mm 8 mps 754 mmHg 88%
    14:00 +10°C° 0.1 mm 8 mps 754 mmHg 85%
    15:00 +11°C° 0.1 mm 8 mps 754 mmHg 83%
    16:00 +10°C° 0 mm 7 mps 755 mmHg 84%
    17:00 +9°C° 0 mm 6 mps 755 mmHg 86%
    18:00 +8°C° 0 mm 6 mps 756 mmHg 87%
    19:00 +7°C° 0 mm 5 mps 757 mmHg 89%
    20:00 +6°C° 0 mm 4 mps 757 mmHg 91%
    21:00 +5°C° 0 mm 3 mps 758 mmHg 94%
    22:00 +7°C° 0 mm 3 mps 758 mmHg 94%
    23:00 +8°C° 0 mm 3 mps 759 mmHg 94%

    21 February, Thursday

    Time Temperature Precipitation Wind Pressure Humidity
    00:00 +8°C° 0 mm 3 mps 759 mmHg 95%
    01:00 +8°C° 0 mm 3 mps 759 mmHg 95%
    02:00 +9°C° 0 mm 3 mps 759 mmHg 95%
    03:00 +9°C° 0 mm 3 mps 760 mmHg 95%
    04:00 +8°C° 0 mm 4 mps 760 mmHg 95%
    05:00 +8°C° 0 mm 4 mps 760 mmHg 95%
    06:00 +8°C° 0 mm 5 mps 760 mmHg 95%
    07:00 +9°C° 0 mm 5 mps 761 mmHg 94%
    08:00 +9°C° 0 mm 5 mps 762 mmHg 93%
    09:00 +9°C° 0 mm 5 mps 762 mmHg 92%
    10:00 +10°C° 0 mm 6 mps 763 mmHg 88%
    11:00 +10°C° 0 mm 6 mps 763 mmHg 85%
    12:00 +11°C° 0 mm 6 mps 763 mmHg 82%
    13:00 +10°C° 0 mm 6 mps 763 mmHg 82%
    14:00 +10°C° 0 mm 6 mps 763 mmHg 83%
    15:00 +10°C° 0 mm 6 mps 763 mmHg 83%
    16:00 +9°C° 0 mm 6 mps 764 mmHg 86%
    17:00 +9°C° 0 mm 5 mps 764 mmHg 90%
    18:00 +8°C° 0 mm 5 mps 764 mmHg 93%
    19:00 +8°C° 0 mm 5 mps 764 mmHg 93%
    20:00 +8°C° 0 mm 6 mps 764 mmHg 93%
    21:00 +8°C° 0 mm 6 mps 765 mmHg 93%
    22:00 +8°C° 0 mm 6 mps 765 mmHg 92%
    23:00 +8°C° 0 mm 6 mps 765 mmHg 91%

    22 February, Friday

    Time Temperature Precipitation Wind Pressure Humidity
    00:00 +8°C° 0 mm 6 mps 765 mmHg 90%
    01:00 +8°C° 0 mm 6 mps 765 mmHg 89%
    02:00 +8°C° 0 mm 7 mps 765 mmHg 88%
    03:00 +8°C° 0 mm 7 mps 765 mmHg 88%
    04:00 +8°C° 0 mm 7 mps 766 mmHg 86%
    05:00 +9°C° 0 mm 7 mps 766 mmHg 84%
    06:00 +9°C° 0 mm 7 mps 766 mmHg 83%
    07:00 +9°C° 0 mm 7 mps 766 mmHg 83%
    08:00 +9°C° 0 mm 7 mps 766 mmHg 82%
    09:00 +9°C° 0 mm 7 mps 767 mmHg 82%
    10:00 +9°C° 0 mm 7 mps 767 mmHg 82%
    11:00 +10°C° 0 mm 7 mps 767 mmHg 81%
    12:00 +10°C° 0 mm 7 mps 768 mmHg 80%
    13:00 +11°C° 0 mm 7 mps 767 mmHg 80%
    14:00 +11°C° 0 mm 7 mps 767 mmHg 80%
    15:00 +11°C° 0 mm 7 mps 767 mmHg 79%
    16:00 +10°C° 0 mm 7 mps 767 mmHg 80%
    17:00 +10°C° 0 mm 6 mps 768 mmHg 82%
    18:00 +9°C° 0 mm 6 mps 768 mmHg 83%
    19:00 +9°C° 0 mm 6 mps 768 mmHg 82%
    20:00 +9°C° 0 mm 7 mps 768 mmHg 81%
    21:00 +9°C° 0 mm 7 mps 768 mmHg 80%
    22:00 +9°C° 0 mm 7 mps 768 mmHg 81%
    23:00 +8°C° 0 mm 7 mps 768 mmHg 82%
    Show more